This is the latest recevied weather packets stored in our database for station/object VA3JLF-1. If no packets are shown the sender has not sent any weather packets the latest 10 day(s).
| Time | Temp. | Humidity | Pressure | Rain* | Wind** | Luminosity | Snow |
|---|---|---|---|---|---|---|---|
| 1777509958 | 10° C | 99% | 1002.8 hPa | 2.29 mm | - | - | - |
| 1777509358 | 10° C | 99% | 1003.2 hPa | 2.79 mm | - | - | - |
| 1777508757 | 9.44° C | 99% | 1003.1 hPa | 2.79 mm | - | - | - |
| 1777508157 | 10° C | 99% | 1003.1 hPa | 2.29 mm | - | - | - |
| 1777507557 | 10° C | 99% | 1003.2 hPa | 1.78 mm | - | - | - |
| 1777506957 | 10° C | 99% | 1003.2 hPa | 1.52 mm | - | - | - |
| 1777506357 | 10° C | 99% | 1003.1 hPa | 1.27 mm | - | - | - |
| 1777505757 | 10° C | 99% | 1003.4 hPa | 1.02 mm | - | - | - |
| 1777505157 | 10° C | 99% | 1003.3 hPa | 1.27 mm | - | - | - |
| 1777504557 | 10° C | 99% | 1003.3 hPa | 1.78 mm | - | - | - |
| 1777503958 | 10° C | 99% | 1003.5 hPa | 2.29 mm | - | - | - |
| 1777503357 | 10.56° C | 99% | 1003.2 hPa | 2.54 mm | - | - | - |
| 1777502757 | 10.56° C | 99% | 1003.3 hPa | 3.05 mm | - | - | - |
| 1777502158 | 10.56° C | 99% | 1003.3 hPa | 3.3 mm | - | - | - |
| 1777501557 | 10° C | 99% | 1003.3 hPa | 3.56 mm | - | - | - |
| 1777500958 | 10.56° C | 99% | 1003.3 hPa | 3.56 mm | - | - | - |
| 1777500357 | 10.56° C | 99% | 1003.7 hPa | 3.3 mm | - | - | - |
| 1777499758 | 10.56° C | 99% | 1003.8 hPa | 3.3 mm | - | - | - |
| 1777499158 | 10.56° C | 99% | 1003.8 hPa | 2.79 mm | - | - | - |
| 1777498558 | 10.56° C | 99% | 1003.8 hPa | 2.29 mm | - | - | - |
| 1777497957 | 10.56° C | 99% | 1004.3 hPa | 1.78 mm | - | - | - |
| 1777497357 | 11.11° C | 99% | 1004.7 hPa | 1.52 mm | - | - | - |
| 1777496757 | 11.11° C | 99% | 1004.3 hPa | 1.78 mm | - | - | - |
| 1777496157 | 11.11° C | 99% | 1004.2 hPa | 1.78 mm | - | - | - |
| 1777495559 | 11.11° C | 99% | 1004.2 hPa | 1.52 mm | - | - | - |
* Rain latest hour (hover to see other rain measurements)
** Current wind speed in m/s (hover to see current wind gust speed)